Time,TemperatureF,DewpointF,PressureIn,WindDirection,WindDirectionDegrees,WindSpeedMPH,WindSpeedGustMPH,Humidity,HourlyPrecipIn,Conditions,Clouds,dailyrainin,SoftwareType,DateUTC
2013-04-14 00:03:00,68.0,64.0,29.96,NW,311,0.0,1.0,88,0.00,,,0.00,,2013-04-14 04:03:00,
2013-04-14 00:13:00,68.0,64.0,29.96,NW,311,0.0,1.0,88,0.00,,,0.00,,2013-04-14 04:13:00,
2013-04-14 00:23:00,68.0,64.0,29.96,North,360,0.0,2.0,86,0.00,,,0.00,,2013-04-14 04:23:00,
2013-04-14 00:33:00,68.0,64.0,29.96,ENE,59,0.0,2.0,86,0.00,,,0.00,,2013-04-14 04:33:00,
2013-04-14 00:43:00,68.0,64.0,29.96,ENE,59,0.0,2.0,86,0.00,,,0.00,,2013-04-14 04:43:00,
2013-04-14 00:52:00,68.0,64.0,29.96,NE,55,0.0,-999.0,86,2.63,,,0.00,,2013-04-14 04:52:00,
2013-04-14 01:03:00,68.0,63.0,29.96,East,100,0.0,3.0,85,0.00,,,0.00,,2013-04-14 05:03:00,
2013-04-14 01:12:00,68.0,63.0,29.96,East,100,0.0,3.0,85,0.00,,,0.00,,2013-04-14 05:12:00,
2013-04-14 01:23:00,68.0,63.0,29.95,NNE,22,0.0,4.0,83,0.00,,,0.00,,2013-04-14 05:23:00,
2013-04-14 01:32:00,68.0,62.0,29.96,NNE,13,0.0,2.0,81,0.00,,,0.00,,2013-04-14 05:32:00,
2013-04-14 01:42:00,68.0,62.0,29.96,NNE,13,0.0,2.0,81,0.00,,,0.00,,2013-04-14 05:42:00,
2013-04-14 01:52:00,67.0,61.0,29.96,ENE,76,1.0,3.0,80,0.00,,,0.00,,2013-04-14 05:52:00,
2013-04-14 02:02:00,67.0,61.0,29.96,NE,51,0.0,2.0,80,0.00,,,0.00,,2013-04-14 06:02:00,
2013-04-14 02:12:00,67.0,61.0,29.96,NE,51,0.0,2.0,80,0.00,,,0.00,,2013-04-14 06:12:00,
2013-04-14 02:22:00,67.0,61.0,29.95,East,90,1.0,2.0,80,0.00,,,0.00,,2013-04-14 06:22:00,
2013-04-14 02:32:00,67.0,61.0,29.96,East,94,1.0,6.0,81,0.00,,,0.00,,2013-04-14 06:32:00,
2013-04-14 02:42:00,67.0,61.0,29.96,East,94,1.0,6.0,81,0.00,,,0.00,,2013-04-14 06:42:00,
2013-04-14 02:52:00,67.0,62.0,29.95,East,86,1.0,4.0,83,0.00,,,0.00,,2013-04-14 06:52:00,
2013-04-14 03:03:00,68.0,63.0,29.94,East,93,1.0,8.0,85,0.00,,,0.00,,2013-04-14 07:03:00,
2013-04-14 03:12:00,68.0,63.0,29.94,East,93,1.0,8.0,85,0.00,,,0.00,,2013-04-14 07:12:00,
2013-04-14 03:22:00,68.0,63.0,29.93,ESE,110,3.0,8.0,85,0.00,,,0.00,,2013-04-14 07:22:00,
2013-04-14 03:33:00,69.0,64.0,29.93,East,88,2.0,8.0,85,0.00,,,0.00,,2013-04-14 07:33:00,
2013-04-14 03:42:00,69.0,64.0,29.93,East,88,2.0,8.0,85,0.00,,,0.00,,2013-04-14 07:42:00,
2013-04-14 03:52:00,69.0,64.0,29.93,ESE,105,3.0,8.0,84,0.00,,,0.00,,2013-04-14 07:52:00,
2013-04-14 04:03:00,69.0,64.0,29.92,East,97,4.0,8.0,84,0.00,,,0.00,,2013-04-14 08:03:00,
2013-04-14 04:13:00,69.0,64.0,29.92,East,97,4.0,8.0,84,0.00,,,0.00,,2013-04-14 08:13:00,
2013-04-14 04:23:00,70.0,65.0,29.91,East,91,4.0,8.0,84,0.00,,,0.00,,2013-04-14 08:23:00,
2013-04-14 04:33:00,70.0,65.0,29.91,East,81,4.0,9.0,85,0.00,,,0.00,,2013-04-14 08:33:00,
2013-04-14 04:42:00,70.0,65.0,29.91,East,81,4.0,9.0,85,0.00,,,0.00,,2013-04-14 08:42:00,
2013-04-14 04:52:00,70.0,65.0,29.91,ESE,103,4.0,10.0,85,0.00,,,0.00,,2013-04-14 08:52:00,
2013-04-14 05:03:00,70.0,66.0,29.90,ESE,108,3.0,8.0,86,0.00,,,0.00,,2013-04-14 09:03:00,
2013-04-14 05:12:00,70.0,66.0,29.90,ESE,108,3.0,8.0,86,0.00,,,0.00,,2013-04-14 09:12:00,
2013-04-14 05:22:00,70.0,66.0,29.90,ESE,118,4.0,8.0,87,0.00,,,0.00,,2013-04-14 09:22:00,
2013-04-14 05:33:00,70.0,66.0,29.90,East,94,1.0,6.0,87,0.00,,,0.00,,2013-04-14 09:33:00,
2013-04-14 05:43:00,70.0,66.0,29.90,East,94,1.0,6.0,87,0.00,,,0.00,,2013-04-14 09:43:00,
2013-04-14 05:53:00,70.0,66.0,29.90,SE,126,4.0,9.0,88,0.00,,,0.00,,2013-04-14 09:53:00,
2013-04-14 06:03:00,71.0,67.0,29.90,East,87,4.0,10.0,88,0.00,,,0.00,,2013-04-14 10:03:00,
2013-04-14 06:13:00,71.0,67.0,29.90,East,87,4.0,10.0,88,0.00,,,0.00,,2013-04-14 10:13:00,
2013-04-14 06:23:00,71.0,67.0,29.90,East,93,5.0,11.0,87,0.00,,,0.00,,2013-04-14 10:23:00,
2013-04-14 06:33:00,71.0,67.0,29.90,ESE,111,2.0,11.0,88,0.00,,,0.00,,2013-04-14 10:33:00,
2013-04-14 06:42:00,71.0,67.0,29.90,ESE,111,2.0,11.0,88,0.00,,,0.00,,2013-04-14 10:42:00,
2013-04-14 06:52:00,71.0,67.0,29.91,East,101,4.0,13.0,88,0.00,,,0.00,,2013-04-14 10:52:00,
2013-04-14 07:03:00,71.0,67.0,29.91,ESE,116,4.0,10.0,88,0.00,,,0.00,,2013-04-14 11:03:00,
2013-04-14 07:13:00,71.0,67.0,29.91,ESE,116,4.0,10.0,88,0.00,,,0.00,,2013-04-14 11:13:00,
2013-04-14 07:23:00,71.0,67.0,29.90,SE,134,3.0,10.0,88,0.00,,,0.00,,2013-04-14 11:23:00,
2013-04-14 07:33:00,71.0,68.0,29.90,ESE,105,5.0,14.0,89,0.00,,,0.00,,2013-04-14 11:33:00,
2013-04-14 07:42:00,71.0,68.0,29.90,ESE,105,5.0,14.0,89,0.00,,,0.00,,2013-04-14 11:42:00,
2013-04-14 07:52:00,71.0,68.0,29.91,East,84,4.0,11.0,89,0.00,,,0.00,,2013-04-14 11:52:00,
2013-04-14 08:02:00,72.0,69.0,29.91,ESE,113,4.0,10.0,89,0.00,,,0.00,,2013-04-14 12:02:00,
2013-04-14 08:12:00,72.0,69.0,29.91,ESE,113,4.0,10.0,89,0.00,,,0.00,,2013-04-14 12:12:00,
2013-04-14 08:22:00,72.0,69.0,29.91,East,92,3.0,12.0,89,0.00,,,0.00,,2013-04-14 12:22:00,
2013-04-14 08:32:00,72.0,69.0,29.91,East,88,4.0,10.0,89,0.00,,,0.00,,2013-04-14 12:32:00,
2013-04-14 08:42:00,72.0,69.0,29.91,East,88,4.0,10.0,89,0.00,,,0.00,,2013-04-14 12:42:00,
2013-04-14 08:52:00,72.0,69.0,29.91,South,172,5.0,11.0,89,0.00,,,0.00,,2013-04-14 12:52:00,
2013-04-14 09:02:00,72.0,69.0,29.93,SE,135,4.0,12.0,89,0.00,,,0.00,,2013-04-14 13:02:00,
2013-04-14 09:12:00,72.0,69.0,29.93,SE,135,4.0,12.0,89,0.00,,,0.00,,2013-04-14 13:12:00,
2013-04-14 09:23:00,73.0,70.0,29.93,ESE,118,3.0,8.0,89,0.00,,,0.00,,2013-04-14 13:23:00,
2013-04-14 09:33:00,73.0,69.0,29.93,SE,135,5.0,12.0,87,0.00,,,0.00,,2013-04-14 13:33:00,
2013-04-14 09:42:00,73.0,69.0,29.93,SE,135,5.0,12.0,87,0.00,,,0.00,,2013-04-14 13:42:00,
2013-04-14 09:52:00,74.0,70.0,29.94,ESE,113,3.0,13.0,87,0.00,,,0.00,,2013-04-14 13:52:00,
2013-04-14 10:02:00,74.0,70.0,29.94,East,99,2.0,7.0,86,0.00,,,0.00,,2013-04-14 14:02:00,
2013-04-14 10:12:00,74.0,70.0,29.94,East,99,2.0,7.0,86,0.00,,,0.00,,2013-04-14 14:12:00,
2013-04-14 10:22:00,75.0,70.0,29.94,ENE,69,6.0,10.0,84,0.00,,,0.00,,2013-04-14 14:22:00,
2013-04-14 10:32:00,75.0,70.0,29.94,ENE,70,4.0,9.0,84,0.00,,,0.00,,2013-04-14 14:32:00,
2013-04-14 10:42:00,75.0,70.0,29.94,ENE,70,4.0,9.0,84,0.00,,,0.00,,2013-04-14 14:42:00,
2013-04-14 10:52:00,77.0,71.0,29.94,SE,146,4.0,11.0,82,0.00,,,0.00,,2013-04-14 14:52:00,
2013-04-14 11:03:00,77.0,71.0,29.94,ESE,120,4.0,11.0,81,0.00,,,0.00,,2013-04-14 15:03:00,
2013-04-14 11:12:00,77.0,71.0,29.94,ESE,120,4.0,11.0,81,0.00,,,0.00,,2013-04-14 15:12:00,
2013-04-14 11:22:00,76.0,70.0,29.94,ESE,117,2.0,10.0,82,0.00,,,0.00,,2013-04-14 15:22:00,
2013-04-14 11:33:00,75.0,69.0,29.94,ESE,103,2.0,9.0,83,0.00,,,0.00,,2013-04-14 15:33:00,
2013-04-14 11:43:00,75.0,69.0,29.94,ESE,103,2.0,9.0,83,0.00,,,0.00,,2013-04-14 15:43:00,
2013-04-14 11:53:00,76.0,70.0,29.94,East,92,4.0,9.0,83,0.00,,,0.00,,2013-04-14 15:53:00,
2013-04-14 12:05:00,76.0,70.0,29.92,SE,141,4.0,13.0,83,0.00,,,0.00,,2013-04-14 16:05:00,
2013-04-14 12:13:00,76.0,70.0,29.92,SE,141,4.0,13.0,83,0.00,,,0.00,,2013-04-14 16:13:00,
2013-04-14 12:23:00,76.0,70.0,29.93,ESE,105,4.0,10.0,82,0.00,,,0.00,,2013-04-14 16:23:00,
2013-04-14 12:33:00,77.0,71.0,29.93,ESE,113,4.0,9.0,82,0.00,,,0.00,,2013-04-14 16:33:00,
2013-04-14 12:43:00,77.0,71.0,29.93,ESE,113,4.0,9.0,82,0.00,,,0.00,,2013-04-14 16:43:00,
2013-04-14 12:53:00,81.0,72.0,29.92,ESE,104,3.0,11.0,75,0.00,,,0.00,,2013-04-14 16:53:00,
2013-04-14 13:02:00,79.0,71.0,29.91,East,86,3.0,10.0,76,0.00,,,0.00,,2013-04-14 17:02:00,
2013-04-14 13:13:00,79.0,71.0,29.91,East,86,3.0,10.0,76,0.00,,,0.00,,2013-04-14 17:13:00,
2013-04-14 13:22:00,79.0,72.0,29.91,SE,128,3.0,7.0,78,0.00,,,0.00,,2013-04-14 17:22:00,
2013-04-14 13:33:00,80.0,72.0,29.91,ESE,104,1.0,8.0,77,0.00,,,0.00,,2013-04-14 17:33:00,
2013-04-14 13:42:00,80.0,72.0,29.91,ESE,104,1.0,8.0,77,0.00,,,0.00,,2013-04-14 17:42:00,
2013-04-14 13:52:00,80.0,71.0,29.91,SSW,199,2.0,9.0,74,0.00,,,0.00,,2013-04-14 17:52:00,
2013-04-14 14:03:00,81.0,72.0,29.91,SSW,192,2.0,5.0,74,0.00,,,0.00,,2013-04-14 18:03:00,
2013-04-14 14:13:00,81.0,72.0,29.91,SSW,192,2.0,5.0,74,0.00,,,0.00,,2013-04-14 18:13:00,
2013-04-14 14:22:00,81.0,72.0,29.90,ESE,122,2.0,8.0,74,0.00,,,0.00,,2013-04-14 18:22:00,
2013-04-14 14:33:00,81.0,72.0,29.90,SE,135,3.0,7.0,75,0.00,,,0.00,,2013-04-14 18:33:00,
2013-04-14 14:43:00,81.0,72.0,29.90,SE,135,3.0,7.0,75,0.00,,,0.00,,2013-04-14 18:43:00,
2013-04-14 14:53:00,81.0,72.0,29.89,ENE,59,2.0,9.0,73,0.00,,,0.00,,2013-04-14 18:53:00,
2013-04-14 15:04:00,82.0,72.0,29.89,North,355,1.0,6.0,73,0.00,,,0.00,,2013-04-14 19:04:00,
2013-04-14 15:12:00,82.0,72.0,29.89,North,355,1.0,6.0,73,0.00,,,0.00,,2013-04-14 19:12:00,
2013-04-14 15:22:00,85.0,73.0,29.88,ESE,105,2.0,12.0,67,0.00,,,0.00,,2013-04-14 19:22:00,
2013-04-14 15:32:00,84.0,71.0,29.87,ENE,73,4.0,12.0,66,0.00,,,0.00,,2013-04-14 19:32:00,
2013-04-14 15:43:00,84.0,71.0,29.87,ENE,73,4.0,12.0,66,0.00,,,0.00,,2013-04-14 19:43:00,
2013-04-14 15:52:00,83.0,72.0,29.86,SE,126,2.0,8.0,69,0.00,,,0.00,,2013-04-14 19:52:00,
2013-04-14 16:03:00,83.0,72.0,29.86,SW,227,2.0,8.0,69,0.00,,,0.00,,2013-04-14 20:03:00,
2013-04-14 16:13:00,83.0,72.0,29.86,SW,227,2.0,8.0,69,0.00,,,0.00,,2013-04-14 20:13:00,
2013-04-14 16:22:00,83.0,71.0,29.86,SW,230,2.0,10.0,68,0.00,,,0.00,,2013-04-14 20:22:00,
2013-04-14 16:33:00,85.0,73.0,29.85,SSW,213,2.0,11.0,67,0.00,,,0.00,,2013-04-14 20:33:00,
2013-04-14 16:43:00,85.0,73.0,29.85,SSW,213,2.0,11.0,67,0.00,,,0.00,,2013-04-14 20:43:00,
2013-04-14 16:52:00,86.0,72.0,29.85,SW,234,6.0,14.0,63,0.00,,,0.00,,2013-04-14 20:52:00,
2013-04-14 17:02:00,84.0,70.0,29.86,North,360,3.0,11.0,64,0.00,,,0.00,,2013-04-14 21:02:00,
2013-04-14 17:12:00,84.0,70.0,29.86,North,360,3.0,11.0,64,0.00,,,0.00,,2013-04-14 21:12:00,
2013-04-14 17:23:00,82.0,70.0,29.87,WNW,289,2.0,15.0,68,0.00,,,0.00,,2013-04-14 21:23:00,
2013-04-14 17:33:00,82.0,72.0,29.87,WNW,283,3.0,11.0,71,0.00,,,0.00,,2013-04-14 21:33:00,
2013-04-14 17:43:00,82.0,72.0,29.87,WNW,283,3.0,11.0,71,0.00,,,0.00,,2013-04-14 21:43:00,
2013-04-14 17:53:00,81.0,71.0,29.87,East,98,4.0,13.0,72,0.00,,,0.00,,2013-04-14 21:53:00,
2013-04-14 18:03:00,80.0,71.0,29.87,SSW,200,2.0,14.0,74,0.00,,,0.00,,2013-04-14 22:03:00,
2013-04-14 18:13:00,80.0,71.0,29.87,SSW,200,2.0,14.0,74,0.00,,,0.00,,2013-04-14 22:13:00,
2013-04-14 18:23:00,81.0,72.0,29.87,South,188,4.0,12.0,73,0.00,,,0.00,,2013-04-14 22:23:00,
2013-04-14 18:33:00,80.0,71.0,29.87,SSW,209,3.0,8.0,74,0.00,,,0.00,,2013-04-14 22:33:00,
2013-04-14 18:44:00,80.0,71.0,29.87,SSW,209,3.0,8.0,74,0.00,,,0.00,,2013-04-14 22:44:00,
2013-04-14 18:52:00,80.0,71.0,29.87,WSW,244,9.0,15.0,74,0.00,,,0.00,,2013-04-14 22:52:00,
2013-04-14 19:02:00,79.0,71.0,29.88,SW,218,6.0,14.0,76,0.00,,,0.00,,2013-04-14 23:02:00,
2013-04-14 19:12:00,79.0,71.0,29.88,SW,218,6.0,14.0,76,0.00,,,0.00,,2013-04-14 23:12:00,
2013-04-14 19:23:00,79.0,71.0,29.88,SSW,212,7.0,12.0,77,0.00,,,0.00,,2013-04-14 23:23:00,
2013-04-14 19:33:00,79.0,72.0,29.88,West,265,6.0,13.0,79,0.00,,,0.00,,2013-04-14 23:33:00,
2013-04-14 19:43:00,79.0,72.0,29.88,West,265,6.0,13.0,79,0.00,,,0.00,,2013-04-14 23:43:00,
2013-04-14 19:52:00,78.0,72.0,29.89,SW,214,5.0,16.0,81,0.00,,,0.00,,2013-04-14 23:52:00,
2013-04-14 20:02:00,77.0,71.0,29.89,SW,225,5.0,11.0,83,0.00,,,0.00,,2013-04-15 00:02:00,
2013-04-14 20:12:00,77.0,71.0,29.89,SW,225,5.0,11.0,83,0.00,,,0.00,,2013-04-15 00:12:00,
2013-04-14 20:23:00,76.0,71.0,29.89,WSW,246,4.0,9.0,85,0.00,,,0.00,,2013-04-15 00:23:00,
2013-04-14 20:33:00,76.0,72.0,29.90,SW,229,7.0,13.0,87,0.00,,,0.00,,2013-04-15 00:33:00,
2013-04-14 20:42:00,76.0,72.0,29.90,SW,229,7.0,13.0,87,0.00,,,0.00,,2013-04-15 00:42:00,
2013-04-14 20:52:00,75.0,71.0,29.91,West,279,5.0,11.0,88,0.00,,,0.00,,2013-04-15 00:52:00,
2013-04-14 21:03:00,73.0,65.0,29.96,WSW,256,9.0,22.0,77,0.00,,,0.00,,2013-04-15 01:03:00,
2013-04-14 21:13:00,73.0,65.0,29.96,WSW,256,9.0,22.0,77,0.00,,,0.00,,2013-04-15 01:13:00,
2013-04-14 21:23:00,68.0,64.0,29.98,North,10,7.0,15.0,86,0.03,,,0.03,,2013-04-15 01:23:00,
2013-04-14 21:33:00,66.0,63.0,29.99,WNW,288,6.0,19.0,89,0.06,,,0.06,,2013-04-15 01:33:00,
2013-04-14 21:42:00,66.0,63.0,29.99,WNW,288,6.0,19.0,89,0.06,,,0.06,,2013-04-15 01:42:00,
2013-04-14 21:52:00,66.0,63.0,30.00,NW,306,5.0,15.0,90,0.06,,,0.06,,2013-04-15 01:52:00,
2013-04-14 22:03:00,66.0,63.0,30.00,WNW,297,4.0,12.0,90,0.06,,,0.06,,2013-04-15 02:03:00,
2013-04-14 22:12:00,66.0,63.0,30.00,WNW,297,4.0,12.0,90,0.06,,,0.06,,2013-04-15 02:12:00,
2013-04-14 22:22:00,66.0,63.0,29.99,West,263,5.0,16.0,89,0.03,,,0.06,,2013-04-15 02:22:00,
2013-04-14 22:32:00,66.0,62.0,29.99,NNW,335,3.0,19.0,87,0.00,,,0.06,,2013-04-15 02:32:00,
2013-04-14 22:42:00,66.0,62.0,29.99,NNW,335,3.0,19.0,87,0.00,,,0.06,,2013-04-15 02:42:00,
2013-04-14 22:52:00,66.0,62.0,30.00,North,355,2.0,10.0,86,0.00,,,0.06,,2013-04-15 02:52:00,
2013-04-14 23:03:00,67.0,62.0,30.00,West,281,3.0,9.0,84,0.00,,,0.06,,2013-04-15 03:03:00,
2013-04-14 23:12:00,67.0,62.0,30.00,West,281,3.0,9.0,84,0.00,,,0.06,,2013-04-15 03:12:00,
2013-04-14 23:22:00,67.0,62.0,29.99,NNW,333,1.0,8.0,83,0.00,,,0.06,,2013-04-15 03:22:00,
2013-04-14 23:33:00,67.0,61.0,29.98,North,350,1.0,8.0,81,0.00,,,0.06,,2013-04-15 03:33:00,
2013-04-14 23:43:00,67.0,61.0,29.98,North,350,1.0,8.0,81,0.00,,,0.06,,2013-04-15 03:43:00,
2013-04-14 23:54:00,68.0,61.0,29.97,WNW,288,4.0,10.0,79,0.00,,,0.06,,2013-04-15 03:54:00,